Time,TemperatureF,DewpointF,PressureIn,WindDirection,WindDirectionDegrees,WindSpeedMPH,WindSpeedGustMPH,Humidity,HourlyPrecipIn,Conditions,Clouds,dailyrainin,SoftwareType,DateUTC
2013-02-16 00:00:00,41.7,14.0,30.25,SSW,202,0.0,0.0,32,0.00,CLR,,0.00,WeatherDisplay:10.37,2013-02-16 07:00:00,
2013-02-16 00:05:00,41.5,13.8,30.25,SSW,202,0.0,0.0,32,0.00,CLR,,0.00,WeatherDisplay:10.37,2013-02-16 07:05:00,
2013-02-16 00:10:00,41.5,13.8,30.25,SSW,202,0.0,0.0,32,0.00,CLR,,0.00,WeatherDisplay:10.37,2013-02-16 07:10:00,
2013-02-16 00:15:00,41.5,13.8,30.26,SSW,202,0.0,0.0,32,0.00,CLR,,0.00,WeatherDisplay:10.37,2013-02-16 07:15:00,
2013-02-16 00:20:00,41.5,13.8,30.25,SSW,202,0.0,0.0,32,0.00,CLR,,0.00,WeatherDisplay:10.37,2013-02-16 07:20:00,
2013-02-16 00:30:00,41.5,14.5,30.25,SSW,202,0.0,0.0,33,0.00,CLR,,0.00,WeatherDisplay:10.37,2013-02-16 07:30:00,
2013-02-16 00:35:00,41.5,14.5,30.25,SSW,202,0.0,0.0,33,0.00,CLR,,0.00,WeatherDisplay:10.37,2013-02-16 07:35:00,
2013-02-16 00:40:00,41.5,14.5,30.26,SSW,202,0.0,0.0,33,0.00,CLR,,0.00,WeatherDisplay:10.37,2013-02-16 07:40:00,
2013-02-16 00:45:00,41.5,14.5,30.25,SSW,202,0.0,0.0,33,0.00,CLR,,0.00,WeatherDisplay:10.37,2013-02-16 07:45:00,
2013-02-16 00:50:00,41.5,14.5,30.25,SSW,202,0.0,0.0,33,0.00,CLR,,0.00,WeatherDisplay:10.37,2013-02-16 07:50:00,
2013-02-16 00:55:00,41.5,14.5,30.26,SSW,202,0.0,0.0,33,0.00,CLR,,0.00,WeatherDisplay:10.37,2013-02-16 07:55:00,
2013-02-16 01:00:00,41.5,14.5,30.26,SSW,202,0.0,0.0,33,0.00,CLR,,0.00,WeatherDisplay:10.37,2013-02-16 08:00:00,
2013-02-16 01:10:00,41.2,14.2,30.26,SSW,202,0.0,0.0,33,0.00,CLR,,0.00,WeatherDisplay:10.37,2013-02-16 08:10:00,
2013-02-16 01:15:00,40.8,13.9,30.25,SSW,202,0.0,0.0,33,0.00,CLR,,0.00,WeatherDisplay:10.37,2013-02-16 08:15:00,
2013-02-16 01:20:00,40.5,13.6,30.25,SSW,202,0.0,0.0,33,0.00,CLR,,0.00,WeatherDisplay:10.37,2013-02-16 08:20:00,
2013-02-16 01:25:00,39.9,13.8,30.25,SSW,202,0.0,0.0,34,0.00,CLR,,0.00,WeatherDisplay:10.37,2013-02-16 08:25:00,
2013-02-16 01:30:00,39.7,13.6,30.25,SSW,202,0.0,0.0,34,0.00,CLR,,0.00,WeatherDisplay:10.37,2013-02-16 08:30:00,
2013-02-16 01:35:00,39.7,13.6,30.25,SSW,202,0.0,0.0,34,0.00,CLR,,0.00,WeatherDisplay:10.37,2013-02-16 08:35:00,
2013-02-16 01:40:00,39.4,13.3,30.25,SSW,202,0.0,0.0,34,0.00,CLR,,0.00,WeatherDisplay:10.37,2013-02-16 08:40:00,
2013-02-16 01:45:00,39.0,13.6,30.26,SSW,202,0.0,0.0,35,0.00,CLR,,0.00,WeatherDisplay:10.37,2013-02-16 08:45:00,
2013-02-16 01:50:00,39.0,13.6,30.25,SSW,202,0.0,0.0,35,0.00,CLR,,0.00,WeatherDisplay:10.37,2013-02-16 08:50:00,
2013-02-16 01:55:00,38.8,13.5,30.26,SSW,202,0.0,0.0,35,0.00,CLR,,0.00,WeatherDisplay:10.37,2013-02-16 08:55:00,
2013-02-16 02:00:00,38.5,13.2,30.25,SSW,202,0.0,0.0,35,0.00,CLR,,0.00,WeatherDisplay:10.37,2013-02-16 09:00:00,
2013-02-16 02:05:00,38.5,13.2,30.26,SSW,202,0.0,0.0,35,0.00,CLR,,0.00,WeatherDisplay:10.37,2013-02-16 09:05:00,
2013-02-16 02:15:00,38.3,13.6,30.26,SSW,202,0.0,0.0,36,0.00,CLR,,0.00,WeatherDisplay:10.37,2013-02-16 09:15:00,
2013-02-16 02:20:00,38.0,13.4,30.26,SSW,202,0.0,0.0,36,0.00,CLR,,0.00,WeatherDisplay:10.37,2013-02-16 09:20:00,
2013-02-16 02:25:00,37.8,13.2,30.26,SSW,202,0.0,0.0,36,0.00,CLR,,0.00,WeatherDisplay:10.37,2013-02-16 09:25:00,
2013-02-16 02:30:00,37.7,13.1,30.26,SSW,202,0.0,0.0,36,0.00,CLR,,0.00,WeatherDisplay:10.37,2013-02-16 09:30:00,
2013-02-16 02:35:00,37.3,13.4,30.25,SSW,202,0.0,0.0,37,0.00,CLR,,0.00,WeatherDisplay:10.37,2013-02-16 09:35:00,
2013-02-16 02:40:00,37.2,13.3,30.26,SSW,202,0.0,0.0,37,0.00,CLR,,0.00,WeatherDisplay:10.37,2013-02-16 09:40:00,
2013-02-16 02:45:00,37.0,13.1,30.26,SSW,202,0.0,0.0,37,0.00,CLR,,0.00,WeatherDisplay:10.37,2013-02-16 09:45:00,
2013-02-16 02:50:00,36.8,12.9,30.26,SSW,202,0.0,0.0,37,0.00,CLR,,0.00,WeatherDisplay:10.37,2013-02-16 09:50:00,
2013-02-16 02:55:00,36.7,12.8,30.26,SSW,202,0.0,0.0,37,0.00,CLR,,0.00,WeatherDisplay:10.37,2013-02-16 09:55:00,
2013-02-16 03:05:00,36.3,13.1,30.26,SSW,202,0.0,0.0,38,0.00,CLR,,0.00,WeatherDisplay:10.37,2013-02-16 10:05:00,
2013-02-16 03:10:00,36.3,13.1,30.26,SSW,202,0.0,0.0,38,0.00,CLR,,0.00,WeatherDisplay:10.37,2013-02-16 10:10:00,
2013-02-16 03:15:00,36.1,12.9,30.25,SSW,202,0.0,0.0,38,0.00,CLR,,0.00,WeatherDisplay:10.37,2013-02-16 10:15:00,
2013-02-16 03:20:00,36.0,13.4,30.26,SSW,202,0.0,0.0,39,0.00,CLR,,0.00,WeatherDisplay:10.37,2013-02-16 10:20:00,
2013-02-16 03:25:00,36.0,13.4,30.26,SSW,202,0.0,0.0,39,0.00,CLR,,0.00,WeatherDisplay:10.37,2013-02-16 10:25:00,
2013-02-16 03:30:00,36.0,13.4,30.26,SSW,202,0.0,0.0,39,0.00,CLR,,0.00,WeatherDisplay:10.37,2013-02-16 10:30:00,
2013-02-16 03:40:00,35.8,13.2,30.25,SSW,202,0.0,0.0,39,0.00,CLR,,0.00,WeatherDisplay:10.37,2013-02-16 10:40:00,
2013-02-16 03:45:00,35.4,12.9,30.25,SSW,202,0.0,0.0,39,0.00,CLR,,0.00,WeatherDisplay:10.37,2013-02-16 10:45:00,
2013-02-16 03:50:00,35.4,12.9,30.26,SSW,202,0.0,0.0,39,0.00,CLR,,0.00,WeatherDisplay:10.37,2013-02-16 10:50:00,
2013-02-16 04:00:00,35.2,13.3,30.25,SSW,202,0.0,0.0,40,0.00,CLR,,0.00,WeatherDisplay:10.37,2013-02-16 11:00:00,
2013-02-16 04:05:00,35.2,13.3,30.26,SSW,202,0.0,0.0,40,0.00,CLR,,0.00,WeatherDisplay:10.37,2013-02-16 11:05:00,
2013-02-16 04:10:00,35.2,13.3,30.25,SSW,202,0.0,0.0,40,0.00,CLR,,0.00,WeatherDisplay:10.37,2013-02-16 11:10:00,
2013-02-16 04:15:00,35.2,13.3,30.26,SSW,202,0.0,0.0,40,0.00,CLR,,0.00,WeatherDisplay:10.37,2013-02-16 11:15:00,
2013-02-16 04:25:00,35.1,13.1,30.25,SSW,202,0.0,0.0,40,0.00,CLR,,0.00,WeatherDisplay:10.37,2013-02-16 11:25:00,
2013-02-16 04:35:00,35.5,12.9,30.25,SSW,202,0.0,0.0,39,0.00,CLR,,0.00,WeatherDisplay:10.37,2013-02-16 11:35:00,
2013-02-16 04:40:00,36.0,13.4,30.25,SSW,202,0.0,0.0,39,0.00,CLR,,0.00,WeatherDisplay:10.37,2013-02-16 11:40:00,
2013-02-16 04:50:00,36.5,13.3,30.25,SSW,202,0.0,0.0,38,0.00,CLR,,0.00,WeatherDisplay:10.37,2013-02-16 11:50:00,
2013-02-16 04:55:00,37.0,13.1,30.25,SSW,202,0.0,0.0,37,0.00,CLR,,0.00,WeatherDisplay:10.37,2013-02-16 11:55:00,
2013-02-16 05:00:00,37.4,13.5,30.25,SSW,202,0.0,0.0,37,0.00,CLR,,0.00,WeatherDisplay:10.37,2013-02-16 12:00:00,
2013-02-16 05:05:00,37.9,13.9,30.25,SSW,202,0.0,0.0,37,0.00,CLR,,0.00,WeatherDisplay:10.37,2013-02-16 12:05:00,
2013-02-16 05:10:00,37.9,13.9,30.25,SSW,202,0.0,0.0,37,0.00,CLR,,0.00,WeatherDisplay:10.37,2013-02-16 12:10:00,
2013-02-16 05:15:00,37.9,13.9,30.25,SSW,202,0.0,0.0,37,0.00,CLR,,0.00,WeatherDisplay:10.37,2013-02-16 12:15:00,
2013-02-16 05:20:00,37.9,13.9,30.24,SSW,202,0.0,0.0,37,0.00,CLR,,0.00,WeatherDisplay:10.37,2013-02-16 12:20:00,
2013-02-16 05:30:00,37.9,13.9,30.25,SSW,202,0.0,0.0,37,0.00,CLR,,0.00,WeatherDisplay:10.37,2013-02-16 12:30:00,
2013-02-16 05:35:00,37.9,13.3,30.25,SSW,202,0.0,0.0,36,0.00,CLR,,0.00,WeatherDisplay:10.37,2013-02-16 12:35:00,
2013-02-16 05:40:00,37.9,13.9,30.24,SSW,202,0.0,0.0,37,0.00,CLR,,0.00,WeatherDisplay:10.37,2013-02-16 12:40:00,
2013-02-16 05:50:00,37.2,13.3,30.25,SSW,202,0.0,0.0,37,0.00,CLR,,0.00,WeatherDisplay:10.37,2013-02-16 12:50:00,
2013-02-16 05:55:00,37.0,13.1,30.25,SSW,202,0.0,0.0,37,0.00,CLR,,0.00,WeatherDisplay:10.37,2013-02-16 12:55:00,
2013-02-16 06:00:00,36.7,13.4,30.25,SSW,202,0.0,0.0,38,0.00,CLR,,0.00,WeatherDisplay:10.37,2013-02-16 13:00:00,
2013-02-16 06:05:00,36.2,13.0,30.24,SSW,202,0.0,0.0,38,0.00,CLR,,0.00,WeatherDisplay:10.37,2013-02-16 13:05:00,
2013-02-16 06:10:00,36.1,13.5,30.24,SSW,202,0.0,0.0,39,0.00,CLR,,0.00,WeatherDisplay:10.37,2013-02-16 13:10:00,
2013-02-16 06:15:00,35.8,13.2,30.24,SSW,202,0.0,0.0,39,0.00,CLR,,0.00,WeatherDisplay:10.37,2013-02-16 13:15:00,
2013-02-16 06:20:00,35.4,12.9,30.25,SSW,202,0.0,0.0,39,0.00,CLR,,0.00,WeatherDisplay:10.37,2013-02-16 13:20:00,
2013-02-16 06:25:00,35.2,13.3,30.25,SSW,202,0.0,0.0,40,0.00,CLR,,0.00,WeatherDisplay:10.37,2013-02-16 13:25:00,
2013-02-16 06:30:00,34.9,13.0,30.25,SSW,202,0.0,0.0,40,0.00,CLR,,0.00,WeatherDisplay:10.37,2013-02-16 13:30:00,
2013-02-16 06:35:00,34.4,12.5,30.25,South,190,0.0,0.0,40,0.00,CLR,,0.00,WeatherDisplay:10.37,2013-02-16 13:35:00,
2013-02-16 06:40:00,34.3,12.5,30.24,SSE,151,0.0,0.0,40,0.00,CLR,,0.00,WeatherDisplay:10.37,2013-02-16 13:40:00,
2013-02-16 06:45:00,34.7,12.8,30.25,ESE,116,0.0,0.0,40,0.00,CLR,,0.00,WeatherDisplay:10.37,2013-02-16 13:45:00,
2013-02-16 06:50:00,34.9,13.0,30.25,ESE,112,0.0,0.0,40,0.00,CLR,,0.00,WeatherDisplay:10.37,2013-02-16 13:50:00,
2013-02-16 07:00:00,34.9,13.0,30.25,ESE,112,0.0,0.0,40,0.00,CLR,,0.00,WeatherDisplay:10.37,2013-02-16 14:00:00,
2013-02-16 07:10:00,35.5,13.0,30.25,ESE,117,0.0,0.0,39,0.00,CLR,,0.00,WeatherDisplay:10.37,2013-02-16 14:10:00,
2013-02-16 07:15:00,36.3,13.7,30.25,SE,129,0.0,0.0,39,0.00,CLR,,0.00,WeatherDisplay:10.37,2013-02-16 14:15:00,
2013-02-16 07:20:00,37.1,14.4,30.25,SE,138,0.0,0.0,39,0.00,CLR,,0.00,WeatherDisplay:10.37,2013-02-16 14:20:00,
2013-02-16 07:25:00,37.5,14.2,30.25,SSE,150,0.0,0.0,38,0.00,CLR,,0.00,WeatherDisplay:10.37,2013-02-16 14:25:00,
2013-02-16 07:30:00,38.1,14.1,30.25,SSE,158,0.0,0.0,37,0.00,CLR,,0.00,WeatherDisplay:10.37,2013-02-16 14:30:00,
2013-02-16 07:35:00,38.5,14.5,30.26,SSE,153,0.0,2.0,37,0.00,CLR,,0.00,WeatherDisplay:10.37,2013-02-16 14:35:00,
2013-02-16 07:40:00,39.4,14.6,30.26,SE,144,0.0,2.0,36,0.00,CLR,,0.00,WeatherDisplay:10.37,2013-02-16 14:40:00,
2013-02-16 07:45:00,39.7,14.9,30.26,SE,124,0.0,0.0,36,0.00,CLR,,0.00,WeatherDisplay:10.37,2013-02-16 14:45:00,
2013-02-16 07:50:00,40.1,15.3,30.26,SE,129,0.0,0.0,36,0.00,CLR,,0.00,WeatherDisplay:10.37,2013-02-16 14:50:00,
2013-02-16 07:55:00,40.8,15.2,30.26,SE,133,0.0,0.0,35,0.00,CLR,,0.00,WeatherDisplay:10.37,2013-02-16 14:55:00,
2013-02-16 08:05:00,41.8,16.1,30.26,SE,128,0.0,0.0,35,0.00,CLR,,0.00,WeatherDisplay:10.37,2013-02-16 15:05:00,
2013-02-16 08:10:00,42.4,16.0,30.26,ESE,103,0.0,0.0,34,0.00,CLR,,0.00,WeatherDisplay:10.37,2013-02-16 15:10:00,
2013-02-16 08:15:00,43.0,16.5,30.26,East,96,0.0,0.0,34,0.00,CLR,,0.00,WeatherDisplay:10.37,2013-02-16 15:15:00,
2013-02-16 08:20:00,43.6,16.3,30.26,East,79,0.0,0.0,33,0.00,CLR,,0.00,WeatherDisplay:10.37,2013-02-16 15:20:00,
2013-02-16 08:25:00,44.2,16.9,30.27,ENE,62,0.0,0.0,33,0.00,CLR,,0.00,WeatherDisplay:10.37,2013-02-16 15:25:00,
2013-02-16 08:30:00,44.8,17.4,30.27,NE,51,0.0,0.0,33,0.00,CLR,,0.00,WeatherDisplay:10.37,2013-02-16 15:30:00,
2013-02-16 08:35:00,45.4,17.2,30.27,ENE,58,1.0,2.0,32,0.00,CLR,,0.00,WeatherDisplay:10.37,2013-02-16 15:35:00,
2013-02-16 08:40:00,46.0,17.8,30.26,ESE,103,0.0,0.0,32,0.00,CLR,,0.00,WeatherDisplay:10.37,2013-02-16 15:40:00,
2013-02-16 08:45:00,46.6,17.5,30.27,SE,133,0.0,0.0,31,0.00,CLR,,0.00,WeatherDisplay:10.37,2013-02-16 15:45:00,
2013-02-16 08:50:00,47.2,18.0,30.27,SE,144,0.0,0.0,31,0.00,CLR,,0.00,WeatherDisplay:10.37,2013-02-16 15:50:00,
2013-02-16 08:55:00,47.8,18.6,30.27,ESE,121,0.0,0.0,31,0.00,CLR,,0.00,WeatherDisplay:10.37,2013-02-16 15:55:00,
2013-02-16 09:00:00,48.2,18.2,30.27,ENE,71,0.0,0.0,30,0.00,CLR,,0.00,WeatherDisplay:10.37,2013-02-16 16:00:00,
2013-02-16 09:05:00,48.9,18.0,30.26,East,95,0.0,0.0,29,0.00,CLR,,0.00,WeatherDisplay:10.37,2013-02-16 16:05:00,
2013-02-16 09:10:00,49.1,18.2,30.27,SE,129,0.0,0.0,29,0.00,CLR,,0.00,WeatherDisplay:10.37,2013-02-16 16:10:00,
2013-02-16 09:15:00,49.6,18.6,30.27,SE,134,0.0,0.0,29,0.00,CLR,,0.00,WeatherDisplay:10.37,2013-02-16 16:15:00,
2013-02-16 09:20:00,50.2,19.1,30.27,ESE,102,2.0,3.0,29,0.00,CLR,,0.00,WeatherDisplay:10.37,2013-02-16 16:20:00,
2013-02-16 09:25:00,50.7,19.6,30.27,ESE,107,0.0,0.0,29,0.00,CLR,,0.00,WeatherDisplay:10.37,2013-02-16 16:25:00,
2013-02-16 09:30:00,50.9,18.9,30.27,SE,125,0.0,0.0,28,0.00,CLR,,0.00,WeatherDisplay:10.37,2013-02-16 16:30:00,
2013-02-16 09:40:00,51.8,18.8,30.27,ESE,112,0.0,0.0,27,0.00,CLR,,0.00,WeatherDisplay:10.37,2013-02-16 16:40:00,
2013-02-16 09:45:00,52.3,19.3,30.27,East,95,0.0,0.0,27,0.00,CLR,,0.00,WeatherDisplay:10.37,2013-02-16 16:45:00,
2013-02-16 09:50:00,52.7,19.6,30.27,East,80,0.0,0.0,27,0.00,CLR,,0.00,WeatherDisplay:10.37,2013-02-16 16:50:00,
2013-02-16 09:55:00,53.2,20.1,30.27,ENE,72,0.0,0.0,27,0.00,CLR,,0.00,WeatherDisplay:10.37,2013-02-16 16:55:00,
2013-02-16 10:00:00,53.8,20.5,30.27,ENE,71,0.0,0.0,27,0.00,CLR,,0.00,WeatherDisplay:10.37,2013-02-16 17:00:00,
2013-02-16 10:05:00,54.3,20.1,30.26,ENE,71,2.0,3.0,26,0.00,CLR,,0.00,WeatherDisplay:10.37,2013-02-16 17:05:00,
2013-02-16 10:10:00,55.0,20.7,30.26,ENE,77,0.0,0.0,26,0.00,CLR,,0.00,WeatherDisplay:10.37,2013-02-16 17:10:00,
2013-02-16 10:15:00,55.4,21.0,30.26,East,79,0.0,1.0,26,0.00,CLR,,0.00,WeatherDisplay:10.37,2013-02-16 17:15:00,
2013-02-16 10:20:00,55.8,20.5,30.26,ENE,68,0.0,0.0,25,0.00,CLR,,0.00,WeatherDisplay:10.37,2013-02-16 17:20:00,
2013-02-16 10:25:00,56.3,20.9,30.26,East,93,0.0,3.0,25,0.00,CLR,,0.00,WeatherDisplay:10.37,2013-02-16 17:25:00,
2013-02-16 10:30:00,56.5,21.0,30.26,East,93,3.0,4.0,25,0.00,CLR,,0.00,WeatherDisplay:10.37,2013-02-16 17:30:00,
2013-02-16 10:35:00,57.0,20.5,30.26,ENE,71,6.0,6.0,24,0.00,CLR,,0.00,WeatherDisplay:10.37,2013-02-16 17:35:00,
2013-02-16 10:40:00,57.6,21.0,30.26,NE,55,6.0,6.0,24,0.00,CLR,,0.00,WeatherDisplay:10.37,2013-02-16 17:40:00,
2013-02-16 10:45:00,57.9,21.3,30.26,NE,55,9.0,9.0,24,0.00,CLR,,0.00,WeatherDisplay:10.37,2013-02-16 17:45:00,
2013-02-16 10:50:00,58.7,21.0,30.26,ENE,62,1.0,5.0,23,0.00,CLR,,0.00,WeatherDisplay:10.37,2013-02-16 17:50:00,
2013-02-16 10:55:00,58.8,20.0,30.26,NE,55,0.0,5.0,22,0.00,CLR,,0.00,WeatherDisplay:10.37,2013-02-16 17:55:00,
2013-02-16 11:00:00,59.5,20.6,30.25,NE,54,0.0,3.0,22,0.00,CLR,,0.00,WeatherDisplay:10.37,2013-02-16 18:00:00,
2013-02-16 11:05:00,60.1,20.0,30.25,East,80,0.0,3.0,21,0.00,CLR,,0.00,WeatherDisplay:10.37,2013-02-16 18:05:00,
2013-02-16 11:10:00,60.3,20.2,30.25,ESE,112,7.0,9.0,21,0.00,CLR,,0.00,WeatherDisplay:10.37,2013-02-16 18:10:00,
2013-02-16 11:15:00,60.6,20.4,30.25,SE,135,0.0,9.0,21,0.00,CLR,,0.00,WeatherDisplay:10.37,2013-02-16 18:15:00,
2013-02-16 11:20:00,60.6,20.4,30.25,SSE,154,2.0,5.0,21,0.00,CLR,,0.00,WeatherDisplay:10.37,2013-02-16 18:20:00,
2013-02-16 11:25:00,60.8,20.6,30.25,SSE,159,0.0,5.0,21,0.00,CLR,,0.00,WeatherDisplay:10.37,2013-02-16 18:25:00,
2013-02-16 11:30:00,61.0,20.7,30.24,ESE,114,0.0,0.0,21,0.00,CLR,,0.00,WeatherDisplay:10.37,2013-02-16 18:30:00,
2013-02-16 11:35:00,61.5,21.2,30.24,ESE,118,2.0,7.0,21,0.00,CLR,,0.00,WeatherDisplay:10.37,2013-02-16 18:35:00,
2013-02-16 11:40:00,61.6,20.1,30.24,East,100,0.0,7.0,20,0.00,CLR,,0.00,WeatherDisplay:10.37,2013-02-16 18:40:00,
2013-02-16 11:45:00,62.1,20.5,30.24,SSE,165,7.0,7.0,20,0.00,CLR,,0.00,WeatherDisplay:10.37,2013-02-16 18:45:00,
2013-02-16 11:50:00,62.4,20.7,30.24,SSE,161,5.0,6.0,20,0.00,CLR,,0.00,WeatherDisplay:10.37,2013-02-16 18:50:00,
2013-02-16 11:55:00,62.4,20.8,30.24,ENE,77,0.0,4.0,20,0.00,CLR,,0.00,WeatherDisplay:10.37,2013-02-16 18:55:00,
2013-02-16 12:00:00,63.0,21.3,30.23,East,87,9.0,9.0,20,0.00,CLR,,0.00,WeatherDisplay:10.37,2013-02-16 19:00:00,
2013-02-16 12:10:00,63.7,20.6,30.23,ESE,122,0.0,0.0,19,0.00,CLR,,0.00,WeatherDisplay:10.37,2013-02-16 19:10:00,
2013-02-16 12:15:00,63.9,20.7,30.22,SSW,194,0.0,2.0,19,0.00,CLR,,0.00,WeatherDisplay:10.37,2013-02-16 19:15:00,
2013-02-16 12:20:00,64.0,20.9,30.22,SSW,192,3.0,7.0,19,0.00,CLR,,0.00,WeatherDisplay:10.37,2013-02-16 19:20:00,
2013-02-16 12:30:00,65.0,21.7,30.22,ENE,75,7.0,11.0,19,0.00,CLR,,0.00,WeatherDisplay:10.37,2013-02-16 19:30:00,
2013-02-16 12:35:00,66.0,22.5,30.21,ENE,64,3.0,4.0,19,0.00,CLR,,0.00,WeatherDisplay:10.37,2013-02-16 19:35:00,
2013-02-16 12:40:00,66.7,21.8,30.21,NE,56,5.0,6.0,18,0.00,CLR,,0.00,WeatherDisplay:10.37,2013-02-16 19:40:00,
2013-02-16 12:45:00,67.4,22.4,30.20,ENE,68,0.0,8.0,18,0.00,CLR,,0.00,WeatherDisplay:10.37,2013-02-16 19:45:00,
2013-02-16 12:50:00,67.8,22.7,30.20,ESE,123,0.0,8.0,18,0.00,CLR,,0.00,WeatherDisplay:10.37,2013-02-16 19:50:00,
2013-02-16 12:55:00,67.6,22.6,30.20,SE,125,8.0,8.0,18,0.00,CLR,,0.00,WeatherDisplay:10.37,2013-02-16 19:55:00,
2013-02-16 13:00:00,67.8,22.7,30.20,ENE,72,3.0,8.0,18,0.00,CLR,,0.00,WeatherDisplay:10.37,2013-02-16 20:00:00,
2013-02-16 13:05:00,68.5,23.3,30.19,ENE,60,2.0,5.0,18,0.00,CLR,,0.00,WeatherDisplay:10.37,2013-02-16 20:05:00,
2013-02-16 13:10:00,68.9,23.6,30.19,ENE,63,0.0,0.0,18,0.00,CLR,,0.00,WeatherDisplay:10.37,2013-02-16 20:10:00,
2013-02-16 13:15:00,69.1,23.8,30.18,ENE,67,0.0,2.0,18,0.00,CLR,,0.00,WeatherDisplay:10.37,2013-02-16 20:15:00,
2013-02-16 13:20:00,70.0,23.1,30.18,ENE,59,0.0,0.0,17,0.00,CLR,,0.00,WeatherDisplay:10.37,2013-02-16 20:20:00,
2013-02-16 13:25:00,70.0,23.1,30.18,NE,39,8.0,8.0,17,0.00,CLR,,0.00,WeatherDisplay:10.37,2013-02-16 20:25:00,
2013-02-16 13:30:00,70.2,23.3,30.18,NE,44,2.0,8.0,17,0.00,CLR,,0.00,WeatherDisplay:10.37,2013-02-16 20:30:00,
2013-02-16 13:40:00,71.1,22.6,30.17,SE,126,0.0,0.0,16,0.00,CLR,,0.00,WeatherDisplay:10.37,2013-02-16 20:40:00,
2013-02-16 13:45:00,70.9,23.9,30.17,East,79,1.0,3.0,17,0.00,CLR,,0.00,WeatherDisplay:10.37,2013-02-16 20:45:00,
2013-02-16 13:50:00,71.2,22.7,30.16,ENE,57,1.0,7.0,16,0.00,CLR,,0.00,WeatherDisplay:10.37,2013-02-16 20:50:00,
2013-02-16 13:55:00,71.4,22.8,30.16,NE,38,0.0,0.0,16,0.00,CLR,,0.00,WeatherDisplay:10.37,2013-02-16 20:55:00,
2013-02-16 14:00:00,72.2,23.5,30.16,West,265,0.0,4.0,16,0.00,CLR,,0.00,WeatherDisplay:10.37,2013-02-16 21:00:00,
2013-02-16 14:10:00,73.0,24.2,30.15,NE,37,0.0,7.0,16,0.00,CLR,,0.00,WeatherDisplay:10.37,2013-02-16 21:10:00,
2013-02-16 14:15:00,73.3,24.4,30.15,ENE,68,1.0,7.0,16,0.00,CLR,,0.00,WeatherDisplay:10.37,2013-02-16 21:15:00,
2013-02-16 14:20:00,73.6,24.6,30.15,NNE,29,0.0,7.0,16,0.00,CLR,,0.00,WeatherDisplay:10.37,2013-02-16 21:20:00,
2013-02-16 14:25:00,73.9,24.9,30.15,West,265,8.0,8.0,16,0.00,CLR,,0.00,WeatherDisplay:10.37,2013-02-16 21:25:00,
2013-02-16 14:30:00,74.2,25.1,30.15,West,276,2.0,8.0,16,0.00,CLR,,0.00,WeatherDisplay:10.37,2013-02-16 21:30:00,
2013-02-16 14:35:00,74.5,23.8,30.15,NE,50,0.0,6.0,15,0.00,CLR,,0.00,WeatherDisplay:10.37,2013-02-16 21:35:00,
2013-02-16 14:40:00,74.7,23.9,30.15,NE,40,1.0,2.0,15,0.00,CLR,,0.00,WeatherDisplay:10.37,2013-02-16 21:40:00,
2013-02-16 14:45:00,74.7,23.9,30.14,WSW,248,1.0,7.0,15,0.00,CLR,,0.00,WeatherDisplay:10.37,2013-02-16 21:45:00,
2013-02-16 14:50:00,74.8,24.1,30.14,NW,317,2.0,7.0,15,0.00,CLR,,0.00,WeatherDisplay:10.37,2013-02-16 21:50:00,
2013-02-16 14:55:00,75.1,24.3,30.13,WNW,287,0.0,3.0,15,0.00,CLR,,0.00,WeatherDisplay:10.37,2013-02-16 21:55:00,
2013-02-16 15:00:00,75.4,24.5,30.13,West,279,6.0,7.0,15,0.00,CLR,,0.00,WeatherDisplay:10.37,2013-02-16 22:00:00,
2013-02-16 15:05:00,75.6,24.6,30.13,West,269,1.0,6.0,15,0.00,CLR,,0.00,WeatherDisplay:10.37,2013-02-16 22:05:00,
2013-02-16 15:10:00,75.7,24.8,30.13,WSW,258,2.0,2.0,15,0.00,CLR,,0.00,WeatherDisplay:10.37,2013-02-16 22:10:00,
2013-02-16 15:15:00,75.6,24.6,30.12,WSW,253,6.0,6.0,15,0.00,CLR,,0.00,WeatherDisplay:10.37,2013-02-16 22:15:00,
2013-02-16 15:20:00,75.4,24.5,30.12,WSW,248,3.0,6.0,15,0.00,CLR,,0.00,WeatherDisplay:10.37,2013-02-16 22:20:00,
2013-02-16 15:25:00,75.6,24.6,30.13,NW,307,7.0,8.0,15,0.00,CLR,,0.00,WeatherDisplay:10.37,2013-02-16 22:25:00,
2013-02-16 15:30:00,75.6,24.6,30.12,NE,35,8.0,8.0,15,0.00,CLR,,0.00,WeatherDisplay:10.37,2013-02-16 22:30:00,
2013-02-16 15:35:00,75.7,24.8,30.12,SSE,158,1.0,5.0,15,0.00,CLR,,0.00,WeatherDisplay:10.37,2013-02-16 22:35:00,
2013-02-16 15:40:00,75.7,23.1,30.11,WSW,248,0.0,0.0,14,0.00,CLR,,0.00,WeatherDisplay:10.37,2013-02-16 22:40:00,
2013-02-16 15:45:00,75.7,24.8,30.11,WSW,248,3.0,5.0,15,0.00,CLR,,0.00,WeatherDisplay:10.37,2013-02-16 22:45:00,
2013-02-16 15:50:00,75.6,23.0,30.11,WSW,253,0.0,0.0,14,0.00,CLR,,0.00,WeatherDisplay:10.37,2013-02-16 22:50:00,
2013-02-16 15:55:00,75.4,22.8,30.11,WSW,256,0.0,7.0,14,0.00,CLR,,0.00,WeatherDisplay:10.37,2013-02-16 22:55:00,
2013-02-16 16:00:00,75.7,23.1,30.11,WSW,248,2.0,3.0,14,0.00,CLR,,0.00,WeatherDisplay:10.37,2013-02-16 23:00:00,
2013-02-16 16:05:00,75.7,23.1,30.11,WSW,248,5.0,6.0,14,0.00,CLR,,0.00,WeatherDisplay:10.37,2013-02-16 23:05:00,
2013-02-16 16:10:00,75.7,23.1,30.11,WSW,248,5.0,6.0,14,0.00,CLR,,0.00,WeatherDisplay:10.37,2013-02-16 23:10:00,
2013-02-16 16:15:00,75.7,23.1,30.11,WSW,248,0.0,1.0,14,0.00,CLR,,0.00,WeatherDisplay:10.37,2013-02-16 23:15:00,
2013-02-16 16:20:00,75.7,23.1,30.10,WSW,248,0.0,0.0,14,0.00,CLR,,0.00,WeatherDisplay:10.37,2013-02-16 23:20:00,
2013-02-16 16:30:00,74.1,21.8,30.10,WSW,248,0.0,0.0,14,0.00,CLR,,0.00,WeatherDisplay:10.37,2013-02-16 23:30:00,
2013-02-16 16:35:00,73.6,19.7,30.10,WSW,248,0.0,0.0,13,0.00,CLR,,0.00,WeatherDisplay:10.37,2013-02-16 23:35:00,
2013-02-16 16:40:00,73.2,19.4,30.10,SSE,158,5.0,5.0,13,0.00,CLR,,0.00,WeatherDisplay:10.37,2013-02-16 23:40:00,
2013-02-16 16:45:00,73.1,19.3,30.10,WSW,248,0.0,0.0,13,0.00,CLR,,0.00,WeatherDisplay:10.37,2013-02-16 23:45:00,
2013-02-16 16:50:00,72.3,20.4,30.10,WSW,248,0.0,0.0,14,0.00,CLR,,0.00,WeatherDisplay:10.37,2013-02-16 23:50:00,
2013-02-16 16:55:00,71.8,21.6,30.10,WSW,248,0.0,0.0,15,0.00,CLR,,0.00,WeatherDisplay:10.37,2013-02-16 23:55:00,
2013-02-16 17:00:00,71.3,21.2,30.10,WSW,248,0.0,0.0,15,0.00,CLR,,0.00,WeatherDisplay:10.37,2013-02-17 00:00:00,
2013-02-16 17:10:00,70.0,20.2,30.10,WSW,248,5.0,5.0,15,0.00,CLR,,0.00,WeatherDisplay:10.37,2013-02-17 00:10:00,
2013-02-16 17:15:00,69.4,19.7,30.10,WSW,248,0.0,5.0,15,0.00,CLR,,0.00,WeatherDisplay:10.37,2013-02-17 00:15:00,
2013-02-16 17:20:00,68.9,19.3,30.10,SSW,211,0.0,0.0,15,0.00,CLR,,0.00,WeatherDisplay:10.37,2013-02-17 00:20:00,
2013-02-16 17:30:00,67.9,18.5,30.10,ESE,119,0.0,0.0,15,0.00,CLR,,0.00,WeatherDisplay:10.37,2013-02-17 00:30:00,
2013-02-16 17:35:00,67.3,18.0,30.10,SE,141,5.0,6.0,15,0.00,CLR,,0.00,WeatherDisplay:10.37,2013-02-17 00:35:00,
2013-02-16 17:40:00,66.8,17.6,30.10,ESE,115,0.0,6.0,15,0.00,CLR,,0.00,WeatherDisplay:10.37,2013-02-17 00:40:00,
2013-02-16 17:50:00,65.1,17.8,30.10,ESE,119,0.0,0.0,16,0.00,CLR,,0.00,WeatherDisplay:10.37,2013-02-17 00:50:00,
2013-02-16 17:55:00,64.5,17.3,30.10,SE,146,0.0,0.0,16,0.00,CLR,,0.00,WeatherDisplay:10.37,2013-02-17 00:55:00,
2013-02-16 18:00:00,63.9,16.8,30.10,SE,143,0.0,0.0,16,0.00,CLR,,0.00,WeatherDisplay:10.37,2013-02-17 01:00:00,
2013-02-16 18:05:00,63.3,16.3,30.10,SE,137,0.0,0.0,16,0.00,CLR,,0.00,WeatherDisplay:10.37,2013-02-17 01:05:00,
2013-02-16 18:10:00,62.8,17.3,30.10,SSE,158,0.0,0.0,17,0.00,CLR,,0.00,WeatherDisplay:10.37,2013-02-17 01:10:00,
2013-02-16 18:20:00,61.5,16.2,30.10,SSW,195,0.0,0.0,17,0.00,CLR,,0.00,WeatherDisplay:10.37,2013-02-17 01:20:00,
2013-02-16 18:25:00,60.6,15.5,30.10,SSW,202,0.0,0.0,17,0.00,CLR,,0.00,WeatherDisplay:10.37,2013-02-17 01:25:00,
2013-02-16 18:30:00,59.7,16.1,30.10,SSW,197,0.0,0.0,18,0.00,CLR,,0.00,WeatherDisplay:10.37,2013-02-17 01:30:00,
2013-02-16 18:35:00,59.0,15.5,30.10,South,186,0.0,0.0,18,0.00,CLR,,0.00,WeatherDisplay:10.37,2013-02-17 01:35:00,
2013-02-16 18:40:00,58.6,15.1,30.10,South,180,0.0,0.0,18,0.00,CLR,,0.00,WeatherDisplay:10.37,2013-02-17 01:40:00,
2013-02-16 18:45:00,57.9,15.9,30.10,South,189,0.0,0.0,19,0.00,CLR,,0.00,WeatherDisplay:10.37,2013-02-17 01:45:00,
2013-02-16 18:50:00,57.4,15.4,30.10,SSW,206,1.0,2.0,19,0.00,CLR,,0.00,WeatherDisplay:10.37,2013-02-17 01:50:00,
2013-02-16 18:55:00,56.7,14.8,30.10,SSW,205,0.0,4.0,19,0.00,CLR,,0.00,WeatherDisplay:10.37,2013-02-17 01:55:00,
2013-02-16 19:00:00,55.9,15.4,30.10,SSW,196,0.0,4.0,20,0.00,CLR,,0.00,WeatherDisplay:10.37,2013-02-17 02:00:00,
2013-02-16 19:05:00,55.8,14.1,30.10,SSW,199,3.0,3.0,19,0.00,CLR,,0.00,WeatherDisplay:10.37,2013-02-17 02:05:00,
2013-02-16 19:10:00,55.2,14.8,30.10,SSW,203,0.0,4.0,20,0.00,CLR,,0.00,WeatherDisplay:10.37,2013-02-17 02:10:00,
2013-02-16 19:20:00,54.7,14.3,30.10,SSW,194,0.0,0.0,20,0.00,CLR,,0.00,WeatherDisplay:10.37,2013-02-17 02:20:00,
2013-02-16 19:25:00,54.5,14.2,30.10,SSW,197,0.0,0.0,20,0.00,CLR,,0.00,WeatherDisplay:10.37,2013-02-17 02:25:00,
2013-02-16 19:30:00,54.3,14.0,30.10,SSW,198,1.0,3.0,20,0.00,CLR,,0.00,WeatherDisplay:10.37,2013-02-17 02:30:00,
2013-02-16 19:40:00,53.9,13.7,30.10,SSW,202,0.0,0.0,20,0.00,CLR,,0.00,WeatherDisplay:10.37,2013-02-17 02:40:00,
2013-02-16 19:45:00,53.8,13.6,30.10,SSW,197,0.0,0.0,20,0.00,CLR,,0.00,WeatherDisplay:10.37,2013-02-17 02:45:00,
2013-02-16 19:50:00,53.4,13.3,30.10,South,189,0.0,3.0,20,0.00,CLR,,0.00,WeatherDisplay:10.37,2013-02-17 02:50:00,
2013-02-16 19:55:00,53.4,14.4,30.10,South,191,0.0,0.0,21,0.00,CLR,,0.00,WeatherDisplay:10.37,2013-02-17 02:55:00,
2013-02-16 20:00:00,53.1,14.1,30.10,SSW,195,0.0,0.0,21,0.00,CLR,,0.00,WeatherDisplay:10.37,2013-02-17 03:00:00,
2013-02-16 20:05:00,52.9,13.9,30.10,SSW,198,0.0,0.0,21,0.00,CLR,,0.00,WeatherDisplay:10.37,2013-02-17 03:05:00,
2013-02-16 20:10:00,52.9,13.9,30.10,SSW,202,1.0,2.0,21,0.00,CLR,,0.00,WeatherDisplay:10.37,2013-02-17 03:10:00,
2013-02-16 20:15:00,52.5,13.7,30.10,SSW,202,0.0,2.0,21,0.00,CLR,,0.00,WeatherDisplay:10.37,2013-02-17 03:15:00,
2013-02-16 20:20:00,52.3,13.5,30.10,SSW,202,0.0,0.0,21,0.00,CLR,,0.00,WeatherDisplay:10.37,2013-02-17 03:20:00,
2013-02-16 20:25:00,52.2,13.3,30.10,SSW,202,3.0,5.0,21,0.00,CLR,,0.00,WeatherDisplay:10.37,2013-02-17 03:25:00,
2013-02-16 20:30:00,52.0,13.2,30.10,SSW,202,0.0,3.0,21,0.00,CLR,,0.00,WeatherDisplay:10.37,2013-02-17 03:30:00,
2013-02-16 20:35:00,51.8,13.0,30.10,SSW,202,0.0,3.0,21,0.00,CLR,,0.00,WeatherDisplay:10.37,2013-02-17 03:35:00,
2013-02-16 20:40:00,51.6,13.9,30.10,SSW,200,2.0,2.0,22,0.00,CLR,,0.00,WeatherDisplay:10.37,2013-02-17 03:40:00,
2013-02-16 20:45:00,51.4,13.8,30.10,South,187,0.0,1.0,22,0.00,CLR,,0.00,WeatherDisplay:10.37,2013-02-17 03:45:00,
2013-02-16 20:50:00,51.3,13.6,30.10,South,191,0.0,0.0,22,0.00,CLR,,0.00,WeatherDisplay:10.37,2013-02-17 03:50:00,
2013-02-16 20:55:00,51.1,13.5,30.10,SSW,202,0.0,0.0,22,0.00,CLR,,0.00,WeatherDisplay:10.37,2013-02-17 03:55:00,
2013-02-16 21:00:00,50.7,13.2,30.10,SSW,192,0.0,0.0,22,0.00,CLR,,0.00,WeatherDisplay:10.37,2013-02-17 04:00:00,
2013-02-16 21:05:00,50.7,13.2,30.10,South,181,0.0,0.0,22,0.00,CLR,,0.00,WeatherDisplay:10.37,2013-02-17 04:05:00,
2013-02-16 21:10:00,50.5,13.0,30.10,South,179,0.0,0.0,22,0.00,CLR,,0.00,WeatherDisplay:10.37,2013-02-17 04:10:00,
2013-02-16 21:15:00,50.5,13.0,30.10,South,185,2.0,2.0,22,0.00,CLR,,0.00,WeatherDisplay:10.37,2013-02-17 04:15:00,
2013-02-16 21:20:00,50.5,13.0,30.10,South,173,0.0,0.0,22,0.00,CLR,,0.00,WeatherDisplay:10.37,2013-02-17 04:20:00,
2013-02-16 21:25:00,50.7,13.2,30.10,SSE,153,0.0,2.0,22,0.00,CLR,,0.00,WeatherDisplay:10.37,2013-02-17 04:25:00,
2013-02-16 21:30:00,50.5,13.0,30.10,SSE,155,0.0,0.0,22,0.00,CLR,,0.00,WeatherDisplay:10.37,2013-02-17 04:30:00,
2013-02-16 21:35:00,50.7,13.2,30.10,SSE,158,0.0,0.0,22,0.00,CLR,,0.00,WeatherDisplay:10.37,2013-02-17 04:35:00,
2013-02-16 21:40:00,50.7,13.2,30.10,SSE,158,0.0,0.0,22,0.00,CLR,,0.00,WeatherDisplay:10.37,2013-02-17 04:40:00,
2013-02-16 21:45:00,50.7,13.2,30.10,SSE,167,0.0,0.0,22,0.00,CLR,,0.00,WeatherDisplay:10.37,2013-02-17 04:45:00,
2013-02-16 21:50:00,50.5,13.0,30.10,South,171,0.0,0.0,22,0.00,CLR,,0.00,WeatherDisplay:10.37,2013-02-17 04:50:00,
2013-02-16 21:55:00,50.6,13.1,30.10,SSE,151,0.0,0.0,22,0.00,CLR,,0.00,WeatherDisplay:10.37,2013-02-17 04:55:00,
2013-02-16 22:00:00,50.7,13.2,30.10,SSE,150,0.0,0.0,22,0.00,CLR,,0.00,WeatherDisplay:10.37,2013-02-17 05:00:00,
2013-02-16 22:05:00,50.7,13.2,30.10,SSE,158,0.0,0.0,22,0.00,CLR,,0.00,WeatherDisplay:10.37,2013-02-17 05:05:00,
2013-02-16 22:10:00,50.7,13.2,30.10,SSE,158,0.0,0.0,22,0.00,CLR,,0.00,WeatherDisplay:10.37,2013-02-17 05:10:00,
2013-02-16 22:15:00,50.7,13.2,30.10,SSE,168,2.0,3.0,22,0.00,CLR,,0.00,WeatherDisplay:10.37,2013-02-17 05:15:00,
2013-02-16 22:20:00,50.7,13.2,30.09,South,175,0.0,0.0,22,0.00,CLR,,0.00,WeatherDisplay:10.37,2013-02-17 05:20:00,
2013-02-16 22:25:00,50.5,13.0,30.09,South,191,0.0,0.0,22,0.00,CLR,,0.00,WeatherDisplay:10.37,2013-02-17 05:25:00,
2013-02-16 22:30:00,49.9,12.5,30.09,SSW,202,0.0,0.0,22,0.00,CLR,,0.00,WeatherDisplay:10.37,2013-02-17 05:30:00,
2013-02-16 22:35:00,49.6,13.3,30.09,SSW,202,0.0,0.0,23,0.00,CLR,,0.00,WeatherDisplay:10.37,2013-02-17 05:35:00,
2013-02-16 22:40:00,49.3,13.0,30.09,SSW,195,0.0,0.0,23,0.00,CLR,,0.00,WeatherDisplay:10.37,2013-02-17 05:40:00,
2013-02-16 22:45:00,49.1,12.8,30.09,SSW,198,3.0,3.0,23,0.00,CLR,,0.00,WeatherDisplay:10.37,2013-02-17 05:45:00,
2013-02-16 22:50:00,48.9,12.7,30.09,SSW,195,0.0,3.0,23,0.00,CLR,,0.00,WeatherDisplay:10.37,2013-02-17 05:50:00,
2013-02-16 22:55:00,48.9,12.7,30.09,SSW,194,0.0,0.0,23,0.00,CLR,,0.00,WeatherDisplay:10.37,2013-02-17 05:55:00,
2013-02-16 23:00:00,48.7,12.5,30.09,SSW,197,0.0,0.0,23,0.00,CLR,,0.00,WeatherDisplay:10.37,2013-02-17 06:00:00,
2013-02-16 23:10:00,48.7,12.5,30.09,SSW,197,0.0,0.0,23,0.00,CLR,,0.00,WeatherDisplay:10.37,2013-02-17 06:10:00,
2013-02-16 23:20:00,48.2,12.1,30.09,SSW,196,0.0,0.0,23,0.00,CLR,,0.00,WeatherDisplay:10.37,2013-02-17 06:20:00,
2013-02-16 23:30:00,47.8,12.7,30.08,SSW,204,0.0,6.0,24,0.00,CLR,,0.00,WeatherDisplay:10.37,2013-02-17 06:30:00,
2013-02-16 23:35:00,47.3,12.3,30.08,SSW,202,0.0,0.0,24,0.00,CLR,,0.00,WeatherDisplay:10.37,2013-02-17 06:35:00,
2013-02-16 23:40:00,47.0,12.0,30.08,SSW,201,0.0,0.0,24,0.00,CLR,,0.00,WeatherDisplay:10.37,2013-02-17 06:40:00,
2013-02-16 23:45:00,46.9,12.0,30.08,SSW,193,0.0,0.0,24,0.00,CLR,,0.00,WeatherDisplay:10.37,2013-02-17 06:45:00,
2013-02-16 23:50:00,46.8,11.8,30.08,South,188,2.0,3.0,24,0.00,CLR,,0.00,WeatherDisplay:10.37,2013-02-17 06:50:00,
2013-02-16 23:55:00,46.8,11.8,30.07,SSW,194,0.0,3.0,24,0.00,CLR,,0.00,WeatherDisplay:10.37,2013-02-17 06:55:00,